Aitkin, MN

6:33 PM CDT on May 22, 2017 (GMT -0500)
Aitkin Municipal / Steve Kurtz Field

Weather History for KAIT - October, 2012

Change the Weather History Date:

Monday, October 15, 2012

  Actual Average Record
Temperature  
Mean Temperature 42 °F -  
Max Temperature 57 °F 55 °F 79 °F (1968)
Min Temperature 26 °F 35 °F 5 °F (1998)
Degree Days  
Heating Degree Days 24    
Moisture  
Dew Point 30 °F    
Average Humidity 57    
Maximum Humidity 86    
Minimum Humidity 33    
Precipitation  
Precipitation 0.00 in - - ()
Sea Level Pressure  
Sea Level Pressure 29.83 in    
Wind  
Wind Speed 2 mph (SSE)    
Max Wind Speed 13 mph    
Max Gust Speed 20 mph    
Visibility 9 miles    
Events Rain    
Averages and records for this station are not official NWS values.
T = Trace of Precipitation, MM = Missing Value Source: NWS Daily Summary

Daily Weather History Graph

Daily Weather History Graph

Search for Another Location

Airport or City:

Trip Planner

Search our weather history database for the weather conditions in past years. The results will help you decide how hot, cold, wet, or windy it might be!

Date:

Astronomy

Oct. 15, 2012 Rise Set
Actual Time 7:32 AM CDT 6:26 PM CDT
Civil Twilight 7:02 AM CDT 6:57 PM CDT
Nautical Twilight 6:27 AM CDT 7:32 PM CDT
Astronomical Twilight 5:52 AM CDT 8:07 PM CDT
Moon 7:47 AM CDT (10/15) 6:21 PM CDT (10/15)
Length of Visible Light 11h 54m
Length of Day
10h 54m
New Moon, 0% of the Moon is Illuminated
Oct 15
New Moon
Oct 21
First Quarter
Oct 29
Full
Nov 6
Last Quarter
Nov 13
New

Hourly Weather History & Observations

Time (CDT) Temp. Dew Point Humidity Pressure Visibility Wind Dir Wind Speed Gust Speed Precip Events Conditions
12:12 AM 37.4 °F 28.4 °F 70% 29.87 in 10.0 mi Calm Calm - N/A   Clear
12:52 AM 33.8 °F 26.6 °F 75% 29.87 in 10.0 mi Calm Calm - N/A   Clear
1:12 AM 32.0 °F 24.8 °F 75% 29.87 in 10.0 mi Calm Calm - N/A   Clear
1:33 AM 30.2 °F 24.8 °F 80% 29.88 in 10.0 mi Calm Calm - N/A   Clear
1:52 AM 30.2 °F 24.8 °F 80% 29.88 in 10.0 mi Calm Calm - N/A   Clear
2:12 AM 30.2 °F 24.8 °F 80% 29.88 in 10.0 mi Calm Calm - N/A   Clear
2:52 AM 28.4 °F 23.0 °F 80% 29.88 in 10.0 mi Calm Calm - N/A   Clear
3:12 AM 28.4 °F 24.8 °F 86% 29.88 in 10.0 mi Calm Calm - N/A   Clear
3:33 AM 28.4 °F 23.0 °F 80% 29.89 in 10.0 mi Calm Calm - N/A   Clear
3:52 AM 26.6 °F 21.2 °F 80% 29.88 in 10.0 mi Calm Calm - N/A   Clear
4:12 AM 28.4 °F 24.8 °F 86% 29.87 in 10.0 mi Calm Calm - N/A   Clear
4:52 AM 28.4 °F 21.2 °F 74% 29.90 in 10.0 mi Calm Calm - N/A   Clear
5:12 AM 28.4 °F 24.8 °F 86% 29.89 in 10.0 mi Calm Calm - N/A   Clear
5:52 AM 28.4 °F 24.8 °F 86% 29.88 in 10.0 mi Calm Calm - N/A   Clear
6:12 AM 26.6 °F 19.4 °F 74% 29.89 in 7.0 mi Calm Calm - N/A   Clear
6:33 AM 28.4 °F 21.2 °F 74% 29.89 in 10.0 mi Calm Calm - N/A   Clear
7:12 AM 26.6 °F 21.2 °F 80% 29.89 in 7.0 mi Calm Calm - N/A   Clear
7:33 AM 26.6 °F 21.2 °F 80% 29.89 in 1.0 mi Calm Calm - N/A   Haze
7:52 AM 26.6 °F 21.2 °F 80% 29.90 in 0.2 mi Calm Calm - N/A   Haze
8:12 AM 26.6 °F 21.2 °F 80% 29.90 in 0.2 mi Calm Calm - N/A   Haze
8:33 AM 30.2 °F 24.8 °F 80% 29.91 in 10.0 mi Calm Calm - N/A   Scattered Clouds
8:53 AM 35.6 °F 28.4 °F 75% 29.90 in 7.0 mi Calm Calm - N/A   Clear
9:12 AM 37.4 °F 32.0 °F 81% 29.90 in 10.0 mi Calm Calm - N/A   Clear
9:33 AM 41.0 °F 35.6 °F 81% 29.91 in 10.0 mi Calm Calm - N/A   Clear
9:53 AM 42.8 °F 35.6 °F 76% 29.91 in 10.0 mi Calm Calm - N/A   Clear
10:12 AM 44.6 °F 35.6 °F 71% 29.91 in 10.0 mi Calm Calm - N/A   Clear
10:33 AM 46.4 °F 35.6 °F 66% 29.91 in 10.0 mi Calm Calm - N/A   Clear
10:52 AM 48.2 °F 33.8 °F 58% 29.91 in 10.0 mi Calm Calm - N/A   Clear
11:13 AM 51.8 °F 33.8 °F 50% 29.91 in 10.0 mi WSW 4.6 mph - N/A   Clear
11:52 AM 51.8 °F 32.0 °F 47% 29.90 in 10.0 mi Calm Calm - N/A   Clear
12:13 PM 53.6 °F 30.2 °F 41% 29.89 in 10.0 mi Calm Calm - N/A   Clear
12:32 PM 53.6 °F 32.0 °F 44% 29.89 in 10.0 mi South 3.5 mph - N/A   Clear
1:13 PM 55.4 °F 28.4 °F 36% 29.87 in 10.0 mi SSW 6.9 mph - N/A   Clear
1:32 PM 55.4 °F 30.2 °F 38% 29.86 in 10.0 mi South 6.9 mph - N/A   Clear
1:52 PM 57.2 °F 30.2 °F 36% 29.85 in 10.0 mi South 8.1 mph - N/A   Clear
2:13 PM 57.2 °F 28.4 °F 33% 29.84 in 10.0 mi South 5.8 mph - N/A   Clear
2:32 PM 57.2 °F 30.2 °F 36% 29.83 in 10.0 mi South 6.9 mph - N/A   Clear
2:52 PM 57.2 °F 30.2 °F 36% 29.82 in 10.0 mi SSE 8.1 mph - N/A   Clear
3:13 PM 57.2 °F 32.0 °F 38% 29.82 in 10.0 mi South 6.9 mph - N/A   Clear
3:32 PM 57.2 °F 32.0 °F 38% 29.82 in 10.0 mi South 8.1 mph - N/A   Scattered Clouds
3:52 PM 57.2 °F 32.0 °F 38% 29.81 in 10.0 mi SSE 6.9 mph - N/A   Clear
4:13 PM 57.2 °F 32.0 °F 38% 29.81 in 10.0 mi South 5.8 mph - N/A   Clear
4:32 PM 57.2 °F 32.0 °F 38% 29.80 in 10.0 mi South 8.1 mph - N/A   Scattered Clouds
4:52 PM 57.2 °F 32.0 °F 38% 29.79 in 10.0 mi SSE 4.6 mph - N/A   Mostly Cloudy
5:13 PM 57.2 °F 33.8 °F 41% 29.79 in 10.0 mi Calm Calm - N/A   Mostly Cloudy
5:32 PM 55.4 °F 32.0 °F 41% 29.78 in 10.0 mi SE 3.5 mph - N/A   Overcast
5:52 PM 55.4 °F 33.8 °F 44% 29.78 in 10.0 mi SSE 3.5 mph - N/A   Overcast
6:13 PM 55.4 °F 33.8 °F 44% 29.77 in 10.0 mi SSE 4.6 mph - N/A Rain Light Rain
6:32 PM 55.4 °F 35.6 °F 47% 29.77 in 10.0 mi SSE 5.8 mph - N/A   Overcast
6:52 PM 55.4 °F 33.8 °F 44% 29.76 in 10.0 mi SSE 9.2 mph - N/A   Overcast
7:13 PM 55.4 °F 33.8 °F 44% 29.76 in 10.0 mi SSE 8.1 mph - N/A   Mostly Cloudy
7:32 PM 55.4 °F 33.8 °F 44% 29.75 in 10.0 mi SSE 10.4 mph - N/A   Scattered Clouds
7:52 PM 55.4 °F 33.8 °F 44% 29.74 in 10.0 mi SSE 8.1 mph - N/A   Mostly Cloudy
8:13 PM 55.4 °F 33.8 °F 44% 29.73 in 10.0 mi SSE 10.4 mph 16.1 mph N/A   Mostly Cloudy
8:32 PM 55.4 °F 33.8 °F 44% 29.73 in 10.0 mi SSE 10.4 mph - N/A   Scattered Clouds
8:52 PM 55.4 °F 33.8 °F 44% 29.72 in 10.0 mi SSE 8.1 mph - N/A   Scattered Clouds
9:13 PM 55.4 °F 33.8 °F 44% 29.72 in 10.0 mi SSE 8.1 mph - N/A   Scattered Clouds
9:32 PM 55.4 °F 33.8 °F 44% 29.71 in 10.0 mi SSE 9.2 mph 16.1 mph N/A   Scattered Clouds
9:52 PM 55.4 °F 33.8 °F 44% 29.70 in 10.0 mi SSE 10.4 mph 17.3 mph N/A   Scattered Clouds
10:13 PM 55.4 °F 33.8 °F 44% 29.70 in 10.0 mi SSE 12.7 mph 19.6 mph N/A   Mostly Cloudy
10:32 PM 55.4 °F 33.8 °F 44% 29.69 in 10.0 mi SSE 11.5 mph - N/A   Scattered Clouds
11:13 PM 55.4 °F 33.8 °F 44% 29.68 in 10.0 mi SSE 11.5 mph - N/A   Clear
11:32 PM 55.4 °F 33.8 °F 44% 29.67 in 10.0 mi SSE 12.7 mph 18.4 mph N/A   Scattered Clouds
11:53 PM 55.4 °F 33.8 °F 44% 29.66 in 10.0 mi SSE 10.4 mph 17.3 mph N/A   Scattered Clouds